Home   Weather   Cabinda   Past weeks

Flag for Angola Past Weather in Cabinda, Angola — Yesterday and Last 2 Weeks

Now
81 °F

Passing clouds.


Feels Like: 85 °F
Forecast: 75 / 80 °F
Wind: 14 mph from Southwest

Location: Pointe Airport-Noire

Current Time: Sep 28, 2016 at 6:12:06 PM

Latest Report: Sep 28, 2016 at 5:00 PM


Visibility: N/A

Pressure: 29.86 "Hg

Humidity: 79%

Dew Point: 73 °F

Location of CabindaLocation

Past Weather in Cabinda — Graph

°F

Cabinda Temperature Yesterday

Maximum temperature yesterday: 84 °F (at 12:00 PM)
Minimum temperature yesterday: 73 °F (at 6:00 AM)
Average temperature yesterday: 78 °F

High & Low Weather Summary for the Past Weeks

 TemperatureHumidityPressure
High93 °F (Sep 22, 1:00 AM)100% (Sep 16, 2:00 AM)30.04 "Hg (Sep 16, 2:00 AM)
Low72 °F (Sep 16, 6:00 AM)25% (Sep 27, 4:00 AM)29.86 "Hg (Sep 20, 3:00 PM)
Average77 °F83%29.94 "Hg
* Reported Sep 13 5:00 PM — Sep 28 5:00 PM, Cabinda, Weather by CustomWeather, © 2016

Note: Actual official high and low records may vary slightly from our data, if they occured in-between our weather recording intervals... More about our weather records

Advertising

Cabinda Weather History for the Previous 24 Hours

Scroll right to see more
 ConditionsComfort  
Time TempWeatherWind HumidityBarometerVisibility
5:00 PM
Wed, Sep 28
81 °FPassing clouds.14 mph79%29.86 "HgN/A
4:00 PM82 °FPassing clouds.12 mph74%29.86 "HgN/A
3:00 PM82 °FScattered clouds.12 mph74%29.89 "HgN/A
2:00 PM82 °FPartly sunny.8 mph74%29.92 "HgN/A
1:00 PM82 °FBroken clouds.9 mph70%29.92 "HgN/A
12:00 PM82 °FBroken clouds.12 mph74%29.89 "HgN/A
11:00 AM81 °FMore clouds than sun.9 mph79%29.98 "HgN/A
10:00 AM81 °FMore clouds than sun.8 mph79%29.98 "HgN/A
9:00 AM79 °FMore clouds than sun.9 mph79%29.98 "HgN/A
8:00 AM79 °FMore clouds than sun.6 mph79%29.98 "Hg4 mi
7:00 AM77 °FMore clouds than sun.7 mph89%29.95 "Hg4 mi
6:00 AM77 °FMore clouds than sun.7 mph89%29.95 "Hg4 mi
5:00 AM77 °FMostly cloudy.8 mph89%29.92 "Hg4 mi
4:00 AM77 °FPartly cloudy.7 mph89%29.92 "Hg4 mi
3:00 AM77 °FMostly cloudy.10 mph89%29.92 "Hg4 mi
2:00 AM75 °FPartly cloudy.10 mph94%29.95 "Hg4 mi
1:00 AM77 °FPassing clouds.5 mph89%29.98 "Hg5 mi
12:00 AM77 °FPassing clouds.2 mph89%29.98 "Hg5 mi
11:00 PM
Tue, Sep 27
77 °FPassing clouds.5 mph89%29.98 "Hg5 mi
10:00 PM77 °FPassing clouds.6 mph89%29.98 "Hg5 mi
9:00 PM77 °FPassing clouds.6 mph89%29.95 "HgN/A
8:00 PM77 °FPartly cloudy.9 mph89%29.92 "HgN/A
7:00 PM77 °FMostly cloudy.7 mph89%29.92 "HgN/A
6:00 PM79 °FBroken clouds.9 mph84%29.89 "HgN/A
Weather by CustomWeather, © 2016

See weather overviewHow to use our weather pages